Location: Barruelo
(41.2448°N, 3.8231°W)
Time: 16:55:33
(UTC+00:00)

Helios 1A Rocket - Visible Passes

Search period start: 14 March 2026 00:00
Search period end: 24 March 2026 00:00
Orbit: 419 x 429 km, 98.3° (Epoch: 14 March)

Date Brightness Start Highest point End Pass type
(mag) Time Alt. Az. Time Alt. Az. Time Alt. Az.
14 Mar 3.2 19:13:11 10° NE 19:16:03 28° E 19:18:53 10° SSE visible
14 Mar 5.6 20:46:05 10° NNW 20:47:56 14° WNW 20:49:46 10° W visible
15 Mar 6.0 05:42:52 10° ENE 05:43:36 11° ENE 05:44:20 10° NE visible
15 Mar 3.1 20:02:00 10° N 20:05:11 53° WNW 20:08:21 10° SSW visible
16 Mar 3.0 19:19:07 10° NNE 19:22:05 32° E 19:25:02 10° SSE visible
16 Mar 5.7 20:52:24 10° NW 20:53:54 13° WNW 20:55:24 10° W visible
17 Mar 5.8 05:48:10 10° E 05:49:30 12° ENE 05:50:50 10° NE visible
17 Mar 3.4 20:07:53 10° N 20:11:01 45° WNW 20:14:08 10° SSW visible
18 Mar 2.8 19:24:43 10° NNE 19:27:47 37° E 19:30:50 10° S visible
18 Mar 5.9 20:58:30 10° NW 20:59:32 11° WNW 21:00:34 10° W visible
19 Mar 3.7 20:13:27 10° N 20:16:31 39° WNW 20:19:34 10° SW visible
20 Mar 2.6 19:30:01 10° NNE 19:33:09 42° E 19:36:15 10° S visible
21 Mar 4.0 20:18:41 10° N 20:21:41 34° WNW 20:24:38 10° SW visible
22 Mar 2.4 19:35:01 10° NNE 19:38:10 48° E 19:41:19 10° S visible
23 Mar 4.2 20:23:36 10° N 20:26:31 31° WNW 20:29:24 10° SW visible
